Hourly Data Report for October 15, 2016

All times are specified in Local Standard Time (LST). Add 1 hour to adjust for Daylight Saving Time where and when it is observed.

BAKER LAKE A
NUNAVUT

64°17'56.000" N
96°04'40.000" W
18.60 m
2300503
71926
YBK

Download Data

Hourly Data (October 2016)
Hourly Data Report for October 15, 2016
Temp Definition
°C
Dew Point Temp Definition
°C
Rel Hum Definition
%
Wind Dir Definition
10's deg

Wind Spd Definition
km/h
Visibility Definition
km
Stn Press Definition
kPa
Hmdx Definition


Wind Chill Definition


Weather Definition


TIME
00:00 Legend Double Dagger -12.4 -14.4 85 28 11 24.1 101.26   -18 Mainly Clear
01:00 Legend Double Dagger -11.1 -13.3 84 29 9 24.1 101.24   -16 LegendNANA
02:00 Legend Double Dagger -10.2 -12.7 82 27 12 24.1 101.26   -16 Snow
03:00 Legend Double Dagger -10.2 -12.9 81 28 12 24.1 101.26   -16 Snow
04:00 Legend Double Dagger -10.1 -12.5 83 26 13 24.1 101.25   -16 Snow
05:00 Legend Double Dagger -9.9 -12.4 82 27 13 24.1 101.24   -16 Snow
06:00 Legend Double Dagger -10.1 -12.3 84 25 14 24.1 101.24   -17 Snow
07:00 Legend Double Dagger -10.2 -12.3 85 24 9 24.1 101.23   -15 Snow
08:00 Legend Double Dagger -9.8 -12.2 83 25 8 16.1 101.24   -14 Snow
09:00 Legend Double Dagger -9.1 -12.6 76 27 13 16.1 101.26   -15 Snow
10:00 Legend Double Dagger -8.7 -12.4 75 29 8 24.1 101.29   -13 Snow
11:00 Legend Double Dagger -8.4 -12.4 73 26 11 24.1 101.31   -14 Snow
12:00 Legend Double Dagger -8.1 -12.0 74 25 12 24.1 101.30   -14 Snow
13:00 Legend Double Dagger -8.0 -11.9 74 29 10 24.1 101.30   -13 Snow
14:00 Legend Double Dagger -7.9 -11.9 73 24 13 32.2 101.32   -14 Snow
15:00 Legend Double Dagger -8.1 -12.7 70 24 13 32.2 101.33   -14 Snow
16:00 Legend Double Dagger -8.1 -12.5 71 24 10 32.2 101.34   -13 Snow
17:00 Legend Double Dagger -8.2 -12.6 71 25 13 32.2 101.37   -14 Snow
18:00 Legend Double Dagger -8.3 -12.7 71 25 12 32.2 101.38   -14 Snow
19:00 Legend Double Dagger -8.3 -12.5 72 26 10 24.1 101.41   -13 Snow
20:00 Legend Double Dagger -8.2 -12.2 73 25 11 24.1 101.42   -13 Snow
21:00 Legend Double Dagger -8.5 -13.0 70 25 20 24.1 101.44   -16 Snow
22:00 Legend Double Dagger -8.4 -12.6 72 26 13 24.1 101.47   -14 Snow
23:00 Legend Double Dagger -8.3 -12.8 70 25 15 24.1 101.48   -15 Snow

Notes on Data Quality.

Legend

  • E = Estimated
  • M = Missing
  • NA = Not Available
  • ‡ = Partner data that is not subject to review by the National Climate Archives
Date modified: